• In Belarus
  • List of Countries
  • For 7 days
  • Water Temperature
  • Satellite Maps
  • Weather Map
  • Weather Widgets
  • user-avatar
    Login

    Hourly Weather Sainte-Anne-des-Monts

    Today, 18 November, Saturday

    Time Temperature Precipitation Wind Pressure Humidity
    00:00 -2°C° 0.2 mm 7 mps 751 mmHg 93%
    01:00 -2°C° 0.2 mm 7 mps 751 mmHg 93%
    02:00 -2°C° 0 mm 7 mps 751 mmHg 92%
    03:00 -3°C° 0.1 mm 7 mps 751 mmHg 92%
    04:00 -3°C° 0.1 mm 7 mps 752 mmHg 91%
    05:00 -3°C° 0.1 mm 7 mps 752 mmHg 91%
    06:00 -3°C° 0.1 mm 6 mps 753 mmHg 91%
    07:00 -3°C° 0.1 mm 6 mps 753 mmHg 92%
    08:00 -2°C° 0 mm 5 mps 753 mmHg 91%
    09:00 -2°C° 0 mm 5 mps 753 mmHg 90%
    10:00 -2°C° 0 mm 4 mps 754 mmHg 90%
    11:00 -1°C° 0 mm 4 mps 754 mmHg 89%
    12:00 -1°C° 0 mm 4 mps 754 mmHg 89%
    13:00 -1°C° 0 mm 4 mps 754 mmHg 89%
    14:00 -1°C° 0 mm 4 mps 754 mmHg 88%
    15:00 -2°C° 0 mm 4 mps 753 mmHg 91%
    16:00 -2°C° 0 mm 3 mps 753 mmHg 93%
    17:00 -4°C° 0 mm 3 mps 753 mmHg 95%
    18:00 -4°C° 0 mm 3 mps 753 mmHg 94%
    19:00 -5°C° 0 mm 3 mps 754 mmHg 93%
    20:00 -5°C° 0 mm 3 mps 754 mmHg 92%
    21:00 -5°C° 0 mm 3 mps 754 mmHg 91%
    22:00 -4°C° 0 mm 3 mps 753 mmHg 89%
    23:00 -3°C° 0 mm 2 mps 753 mmHg 88%

    Tomorrow, 19 November, Sunday

    Time Temperature Precipitation Wind Pressure Humidity
    00:00 -3°C° 0 mm 2 mps 753 mmHg 87%
    01:00 -3°C° 0 mm 2 mps 752 mmHg 87%
    02:00 -1°C° 0 mm 1 mps 752 mmHg 86%
    03:00 -3°C° 0 mm 2 mps 751 mmHg 86%
    04:00 -4°C° 0 mm 3 mps 751 mmHg 87%
    05:00 -4°C° 0 mm 3 mps 750 mmHg 87%
    06:00 -3°C° 0 mm 4 mps 750 mmHg 85%
    07:00 -2°C° 0 mm 5 mps 749 mmHg 84%
    08:00 -2°C° 0 mm 6 mps 748 mmHg 82%
    09:00 -2°C° 0.2 mm 6 mps 747 mmHg 82%
    10:00 -1°C° 0.2 mm 7 mps 746 mmHg 82%
    11:00 0°C° 0.2 mm 7 mps 745 mmHg 82%
    12:00 +1°C° 1.1 mm 8 mps 744 mmHg 85%
    13:00 +1°C° 1.1 mm 9 mps 742 mmHg 88%
    14:00 +2°C° 1.1 mm 9 mps 741 mmHg 92%
    15:00 +2°C° 1.5 mm 10 mps 739 mmHg 92%
    16:00 +3°C° 1.5 mm 10 mps 738 mmHg 93%
    17:00 +5°C° 1.5 mm 10 mps 736 mmHg 94%
    18:00 +5°C° 1.5 mm 10 mps 735 mmHg 95%
    19:00 +6°C° 1.5 mm 9 mps 733 mmHg 96%
    20:00 +7°C° 1.5 mm 9 mps 732 mmHg 97%
    21:00 +6°C° 0.5 mm 8 mps 732 mmHg 97%
    22:00 +6°C° 0.5 mm 7 mps 731 mmHg 96%
    23:00 +5°C° 0.5 mm 7 mps 731 mmHg 96%

    Day after tomorrow, 20 November, Monday

    Time Temperature Precipitation Wind Pressure Humidity
    00:00 +4°C° 0 mm 8 mps 731 mmHg 94%
    01:00 +2°C° 0 mm 9 mps 732 mmHg 92%
    02:00 0°C° 0 mm 10 mps 732 mmHg 90%
    03:00 0°C° 0.1 mm 10 mps 733 mmHg 89%
    04:00 -2°C° 0.1 mm 11 mps 734 mmHg 87%
    05:00 -3°C° 0.1 mm 12 mps 735 mmHg 86%
    06:00 -3°C° 0 mm 11 mps 736 mmHg 86%
    07:00 -4°C° 0 mm 11 mps 737 mmHg 85%
    08:00 -6°C° 0 mm 11 mps 738 mmHg 84%
    09:00 -6°C° 0 mm 11 mps 739 mmHg 84%
    10:00 -6°C° 0 mm 11 mps 740 mmHg 84%
    11:00 -6°C° 0 mm 11 mps 740 mmHg 83%
    12:00 -7°C° 0.1 mm 11 mps 741 mmHg 83%
    13:00 -7°C° 0.1 mm 11 mps 741 mmHg 83%
    14:00 -7°C° 0.1 mm 11 mps 742 mmHg 83%
    15:00 -8°C° 0.1 mm 11 mps 742 mmHg 84%
    16:00 -8°C° 0.1 mm 11 mps 743 mmHg 85%
    17:00 -9°C° 0.1 mm 11 mps 744 mmHg 86%
    18:00 -9°C° 0.2 mm 11 mps 745 mmHg 86%
    19:00 -9°C° 0.2 mm 11 mps 746 mmHg 86%
    20:00 -11°C° 0.2 mm 11 mps 747 mmHg 86%
    21:00 -11°C° 0.1 mm 11 mps 748 mmHg 86%
    22:00 -12°C° 0.1 mm 11 mps 748 mmHg 85%
    23:00 -12°C° 0.1 mm 11 mps 749 mmHg 84%

    21 November, Tuesday

    Time Temperature Precipitation Wind Pressure Humidity
    00:00 -12°C° 0.1 mm 10 mps 750 mmHg 84%
    01:00 -13°C° 0.1 mm 10 mps 751 mmHg 84%
    02:00 -13°C° 0.1 mm 10 mps 751 mmHg 85%
    03:00 -13°C° 0 mm 10 mps 752 mmHg 85%
    04:00 -12°C° 0 mm 9 mps 753 mmHg 85%
    05:00 -12°C° 0 mm 9 mps 754 mmHg 85%
    06:00 -12°C° 0 mm 8 mps 754 mmHg 85%
    07:00 -12°C° 0 mm 7 mps 755 mmHg 86%
    08:00 -12°C° 0 mm 7 mps 756 mmHg 86%
    09:00 -10°C° 0 mm 6 mps 756 mmHg 83%
    10:00 -9°C° 0 mm 6 mps 756 mmHg 80%
    11:00 -7°C° 0 mm 5 mps 757 mmHg 77%
    12:00 -6°C° 0 mm 5 mps 757 mmHg 75%
    13:00 -5°C° 0 mm 5 mps 757 mmHg 72%
    14:00 -3°C° 0 mm 4 mps 757 mmHg 70%
    15:00 -3°C° 0 mm 4 mps 757 mmHg 74%
    16:00 -4°C° 0 mm 4 mps 757 mmHg 78%
    17:00 -4°C° 0 mm 4 mps 757 mmHg 82%
    18:00 -3°C° 0 mm 4 mps 757 mmHg 83%
    19:00 -2°C° 0 mm 5 mps 757 mmHg 83%
    20:00 -1°C° 0 mm 5 mps 757 mmHg 84%
    21:00 -1°C° 0 mm 5 mps 756 mmHg 85%
    22:00 -1°C° 0 mm 5 mps 756 mmHg 86%
    23:00 -2°C° 0 mm 5 mps 756 mmHg 88%

    22 November, Wednesday

    Time Temperature Precipitation Wind Pressure Humidity
    00:00 -2°C° 0 mm 5 mps 755 mmHg 87%
    01:00 -2°C° 0 mm 6 mps 755 mmHg 87%
    02:00 -2°C° 0 mm 6 mps 754 mmHg 86%
    03:00 -2°C° 0.2 mm 6 mps 754 mmHg 86%
    04:00 -2°C° 0.2 mm 6 mps 753 mmHg 87%
    05:00 -2°C° 0.2 mm 6 mps 753 mmHg 87%
    06:00 -2°C° 0.2 mm 6 mps 753 mmHg 88%
    07:00 -1°C° 0.2 mm 6 mps 754 mmHg 90%
    08:00 -1°C° 0.2 mm 6 mps 754 mmHg 91%
    09:00 -1°C° 0 mm 7 mps 754 mmHg 89%
    10:00 0°C° 0 mm 7 mps 754 mmHg 87%
    11:00 +2°C° 0 mm 7 mps 755 mmHg 85%
    12:00 0°C° 0.1 mm 7 mps 755 mmHg 85%
    13:00 0°C° 0.1 mm 8 mps 755 mmHg 85%
    14:00 -1°C° 0.1 mm 8 mps 756 mmHg 85%
    15:00 -2°C° 0 mm 8 mps 756 mmHg 85%
    16:00 -3°C° 0 mm 7 mps 757 mmHg 85%
    17:00 -4°C° 0 mm 7 mps 758 mmHg 85%
    18:00 -6°C° 0 mm 7 mps 758 mmHg 86%
    19:00 -7°C° 0 mm 7 mps 759 mmHg 86%
    20:00 -8°C° 0 mm 7 mps 760 mmHg 87%
    21:00 -8°C° 0 mm 6 mps 760 mmHg 87%
    22:00 -8°C° 0 mm 6 mps 760 mmHg 87%
    23:00 -8°C° 0 mm 6 mps 760 mmHg 86%

    23 November, Thursday

    Time Temperature Precipitation Wind Pressure Humidity
    00:00 -8°C° 0 mm 6 mps 761 mmHg 87%
    01:00 -9°C° 0 mm 6 mps 761 mmHg 87%
    02:00 -8°C° 0 mm 5 mps 761 mmHg 87%
    03:00 -8°C° 0 mm 5 mps 761 mmHg 88%
    04:00 -10°C° 0 mm 5 mps 761 mmHg 88%
    05:00 -9°C° 0 mm 4 mps 762 mmHg 89%
    06:00 -9°C° 0 mm 4 mps 762 mmHg 90%
    07:00 -10°C° 0 mm 4 mps 762 mmHg 90%
    08:00 -10°C° 0 mm 4 mps 762 mmHg 91%
    09:00 -9°C° 0 mm 4 mps 762 mmHg 87%
    10:00 -8°C° 0 mm 4 mps 762 mmHg 83%
    11:00 -7°C° 0 mm 4 mps 762 mmHg 80%
    12:00 -5°C° 0 mm 4 mps 761 mmHg 78%
    13:00 -5°C° 0 mm 3 mps 761 mmHg 77%
    14:00 -4°C° 0 mm 3 mps 760 mmHg 76%
    15:00 -5°C° 0 mm 3 mps 760 mmHg 79%
    16:00 -5°C° 0 mm 2 mps 760 mmHg 82%
    17:00 -5°C° 0 mm 2 mps 760 mmHg 85%
    18:00 -6°C° 0 mm 2 mps 760 mmHg 86%
    19:00 -4°C° 0 mm 1 mps 760 mmHg 86%
    20:00 -4°C° 0 mm 1 mps 759 mmHg 87%
    21:00 -6°C° 0 mm 2 mps 759 mmHg 86%
    22:00 -6°C° 0 mm 2 mps 758 mmHg 85%
    23:00 -7°C° 0 mm 3 mps 757 mmHg 84%
    Show more